EW3286 Weather Reports


time (UTC)temp
C
wind
direction
speed
KPH
gust
KPH
rain 1hr
cm
rain 24hr
cm
rain mn
cm
humidity
%
barometer
mb
20260906183021 19 79 0.0 0.0 0.00 0.00 0.00 91 1016.6
20260906181519 19 142 0.0 0.0 0.00 0.00 0.00 90 1017.3
20260906180017 19 51 0.0 0.0 0.00 0.00 0.00 89 1016.9
20260906174521 19 103 0.0 0.0 0.00 0.00 0.00 88 1016.6
20260906173013 20 160 0.0 0.0 0.00 0.00 0.00 88 1016.6
20260906171510 20 218 0.0 0.0 0.00 0.00 0.00 85 1017.0
20260906170014 21 191 0.0 0.0 0.00 0.00 0.00 80 1017.5
20260906164506 21 315 0.0 0.0 0.00 0.00 0.00 78 1017.0
20260906163001 21 355 0.0 0.0 0.00 0.00 0.00 78 1015.0
20260906161558 21 27 0.0 0.0 0.00 0.00 0.00 85 1015.4
20260906160107 22 5 0.0 0.0 0.00 0.00 0.00 96 1015.2
20260906154559 22 24 0.0 0.0 0.00 0.00 0.00 96 1015.4
20260906153050 22 33 0.0 0.0 0.00 0.00 0.00 96 1014.8
20260906151551 22 38 0.0 0.0 0.00 0.00 0.00 97 1014.3
20260906150056 22 40 0.0 0.0 0.00 0.00 0.00 97 1014.3
20260906144546 22 57 0.0 0.0 0.00 0.00 0.00 97 1014.2
20260906143045 22 43 0.0 0.0 0.00 0.00 0.00 97 1014.6
20260906141544 22 54 0.0 0.0 0.00 0.00 0.00 97 1014.6
20260906140042 22 45 0.0 0.0 0.00 0.00 0.00 97 1014.6
20260906134548 22 51 0.0 0.0 0.00 0.00 0.00 97 1014.5
20260906133101 22 32 0.0 0.0 0.00 0.00 0.00 97 1014.3
20260906131536 22 58 0.0 0.0 0.00 0.00 0.00 97 1014.3
20260906130038 21 65 0.0 0.0 0.00 0.00 0.00 97 1014.3
20260906124532 21 49 0.0 0.0 0.00 0.00 0.00 97 1014.2
20260906123032 21 53 0.0 0.0 0.00 0.00 0.00 97 1014.3
20260906121528 21 66 0.0 0.0 0.00 0.00 0.00 97 1014.3
20260906120025 21 72 0.0 0.0 0.00 0.00 0.00 97 1014.0
20260906114526 21 53 0.0 0.0 0.00 0.00 0.00 97 1013.9
20260906113023 21 63 0.0 0.0 0.00 0.00 0.00 97 1013.7
20260906111522 21 63 0.0 0.0 0.00 0.00 0.00 97 1013.6
20260906110021 21 57 0.0 0.0 0.00 0.00 0.00 96 1013.5
20260906104527 21 52 0.0 0.0 0.00 0.00 0.00 96 1013.6
20260906103023 21 52 0.0 0.0 0.00 0.00 0.00 96 1013.7
20260906101527 22 76 0.0 0.0 0.00 0.00 0.00 96 1013.6
20260906100016 22 35 0.0 0.0 0.00 0.00 0.00 96 1013.8
20260906094514 22 64 0.0 0.0 0.00 0.00 0.00 96 1013.8
20260906093014 22 34 0.0 0.0 0.00 0.00 0.00 96 1013.9
20260906091511 22 61 0.0 0.0 0.00 0.00 0.00 96 1013.9
20260906090011 22 65 0.0 0.0 0.00 0.00 0.00 96 1013.5
20260906084509 22 56 0.0 0.0 0.00 0.00 0.00 96 1013.3
20260906083008 22 31 0.0 0.0 0.00 0.00 0.00 96 1013.1
20260906081607 22 22 0.0 0.0 0.00 0.00 0.00 96 1013.1
20260906080006 22 55 0.0 0.0 0.00 0.00 0.00 96 1013.2
20260906074504 22 53 0.0 0.0 0.00 0.00 0.00 96 1013.2
20260906073001 22 25 0.0 0.0 0.00 0.00 0.00 96 1013.1
20260906071600 22 36 0.0 0.0 0.00 0.00 0.00 96 1013.2
20260906070059 22 44 0.0 0.0 0.00 0.00 0.00 96 1013.3
20260906064601 22 50 0.0 0.0 0.00 0.00 0.00 96 1013.4
20260906063057 22 57 0.0 0.0 0.00 0.00 0.00 96 1013.6
20260906061557 22 28 0.0 0.0 0.00 0.00 0.00 96 1013.6
20260906060049 22 26 0.0 0.0 0.00 0.00 0.00 96 1013.4
20260906054557 22 38 0.0 0.0 0.00 0.00 0.00 95 1013.3
20260906053043 22 29 0.0 0.0 0.00 0.00 0.00 95 1013.2
20260906051537 22 44 0.0 0.0 0.00 0.00 0.00 95 1013.2
20260906050039 22 55 0.0 0.0 0.00 0.00 0.00 95 1013.3
20260906044534 22 50 0.0 0.0 0.00 0.00 0.00 94 1013.3
20260906043034 22 50 0.0 0.0 0.00 0.00 0.00 94 1013.2
20260906041533 22 44 0.0 0.0 0.00 0.00 0.00 93 1013.3
20260906040039 23 46 0.0 0.0 0.00 0.00 0.00 93 1013.1
20260906034541 23 43 0.0 0.0 0.00 0.00 0.00 92 1013.1
20260906033032 23 44 0.0 0.0 0.00 0.00 0.00 91 1012.8
20260906031533 23 44 0.0 0.0 0.00 0.00 0.00 90 1012.9
20260906030031 23 45 0.0 0.0 0.00 0.00 0.00 90 1013.0
20260906024530 24 25 0.0 0.0 0.00 0.00 0.00 89 1013.1
20260906023030 24 21 0.0 0.0 0.00 0.00 0.00 88 1013.1
20260906021529 24 17 0.0 0.0 0.00 0.00 0.00 87 1012.9
20260906020130 24 41 0.0 0.0 0.00 0.00 0.00 86 1012.9
20260906014540 25 36 0.0 0.0 0.00 0.00 0.00 85 1012.6
20260906013030 25 36 0.0 0.0 0.00 0.00 0.00 84 1012.4
20260906011526 25 27 0.0 0.0 0.00 0.00 0.00 83 1012.7
20260906010026 25 44 0.0 0.0 0.00 0.00 0.00 81 1012.4
20260906004526 25 21 0.0 0.0 0.00 0.00 0.00 79 1011.9
20260906003025 26 54 0.0 0.0 0.00 0.00 0.00 77 1011.8
20260906001524 26 25 0.0 0.0 0.00 0.00 0.00 75 1011.7
20260906000024 27 36 0.0 0.0 0.00 0.00 0.00 73 1012.0
20260905234622 27 42 0.0 0.0 0.00 0.00 0.00 72 1011.9
20260905233032 27 34 0.0 0.0 0.00 0.00 0.00 70 1011.8
20260905231525 27 38 0.0 0.0 0.00 0.00 0.00 75 1011.5
20260905230020 27 355 0.0 0.0 0.00 0.00 0.00 74 1011.5
20260905224521 27 18 0.0 0.0 0.00 0.00 0.00 74 1011.4
20260905223018 27 40 0.0 0.0 0.00 0.00 0.00 73 1011.4
20260905221527 27 336 0.0 0.0 0.00 0.00 0.00 74 1011.7
20260905220011 27 9 0.0 0.0 0.00 0.00 0.00 74 1011.4
20260905214511 27 52 0.0 0.0 0.00 0.00 0.00 71 1011.4
20260905213006 28 51 0.0 0.0 0.00 0.00 0.00 71 1011.1
20260905211511 27 267 0.0 0.0 0.00 0.00 0.00 74 1011.0
20260905210005 27 40 0.0 0.0 0.00 0.00 0.00 71 1010.9
20260905204559 27 9 0.0 0.0 0.00 0.00 0.00 71 1010.8
20260905203101 27 40 0.0 0.0 0.00 0.00 0.00 65 1010.8
20260905201554 27 9 0.0 0.0 0.00 0.00 0.00 70 1010.7
20260905200054 28 25 0.0 0.0 0.00 0.00 0.00 65 1010.7
20260905194548 28 51 0.0 0.0 0.00 0.00 0.00 63 1010.7
20260905193104 28 5 0.0 0.0 0.00 0.00 0.00 58 1010.6
20260905191546 28 30 0.0 0.0 0.00 0.00 0.00 56 1010.9
20260905190046 29 47 0.0 0.0 0.00 0.00 0.00 57 1011.1
20260905184545 29 30 0.0 0.0 0.00 0.00 0.00 54 1011.2